Location: Fontevrault
(47.1823°N, 0.0493°E)
Time: 18:02:45
(UTC+00:00)

Cosmos 1725 Rocket - Pass Details

Date: 28 October 2021
Orbit: 961 x 991 km, 82.9° (Epoch: 27 November)

Event Time Altitude Azimuth Distance (km) Brightness Sun altitude
Rises 21:00:06 0° 228° (SW) 3,660 7.2 -42.1°
Enters shadow 21:02:59 - 241° (WSW) 2,757 6.6 -42.5°
Exits shadow 21:08:20 24° 298° (WNW) 1,903 5.9 -43.3°
Drops below altitude 10° 21:12:55 10° 346° (NNW) 2,713 6.7 -43.9°
Sets 21:16:00 0° 1° (N) 3,661 7.4 -44.3°
